STARLINK-31930 (60596 NORAD) Tracking and Keplerian Element Data

This shows tracking and keplerian element data for the satellite.

Feedback or suggestion? Click here.




ElementValue
Catalog60596
NameSTARLINK-31930
Epoch Orbit943
Epoch Day286.83427504
Epoch Year2024
RAAN169.7044
Inclination53.1596
Eccentricity0.0001898
Argument of Perigee102.1028
Mean Anonmoly258.0189
Mean Motion15.39636016
Decay Rate-1.468E-05
L11 60596U 24150P 24286.83427504 -.00001468 00000+0 -26702-4 0 9994
L22 60596 53.1596 169.7044 0001898 102.1028 258.0189 15.39636016 9437



Live tracking and technical data element details for STARLINK-31930 (NORAD 60596). STARLINK-31930 can be tracked NOW for your location showing map with azimuth and elevation plus other details from your city location.







IsCatalogInMostPopularTable: catalog: 60596, numindb: 9
Update: records affected: 1



GetName: 60596 STARLINK-31930

Hit Count: updated at: Wed, 04 Dec 2024 18:15:41 GMT